Regional Weather Roundup
Issued by NWS

Home | Current Version | Previous Version | Graphics & Text | Print | Product List | Glossary On
Versions: 1 2 3 4 5 6 7 8 9 10 11 12 13 14 15 16 17 18 19 20 21 22 23 24 25 26 27 28 29 30 31 32 33 34 35 36 37 38 39 40 41 42 43 44 45 46 47 48 49 50
000
ASUS43 KLOT 270404
RWRIL

ILLINOIS REGIONAL WEATHER ROUNDUP
NATIONAL WEATHER SERVICE CHICAGO/ROMEOVILLE IL
1100 PM CDT WED JUL 26 2017

NOTE: "FAIR" INDICATES FEW OR NO CLOUDS BELOW 12,000 FEET WITH NO
SIGNIFICANT WEATHER AND/OR OBSTRUCTIONS TO VISIBILITY.

* THESE STATIONS ARE NOT UNDER NWS QUALITY CONTROL. THEY ALSO MAY NOT
  REPORT WEATHER SUCH AS PRECIPITATION OR FOG.

ILZ001-002-007-009-015-016-024-270500-
NORTHWEST ILLINOIS

CITY           SKY/WX    TMP DP  RH WIND       PRES   REMARKS
MOLINE         CLOUDY    74  71  91 W3        29.95S
STERLING*      CLOUDY    72  72 100 CALM      29.97R
SAVANNA*       CLOUDY    71  71  99 CALM      29.96S
$$

ILZ003-004-008-010-011-017-018-270500-
NORTH CENTRAL ILLINOIS

CITY           SKY/WX    TMP DP  RH WIND       PRES   REMARKS
ROCKFORD       LGT RAIN  74  71  91 CALM      29.97F
FREEPORT*      CLOUDY    71  70  99 CALM      29.99S
ROCHELLE*      LGT RAIN  70  70  99 CALM      29.98F
DE KALB*       RAIN      71  70  98 SW5       30.00F
PERU*          CLOUDY    71  70  96 S5        29.97F
$$

ILZ005-006-012>014-019>023-270500-
NORTHEAST ILLINOIS

CITY           SKY/WX    TMP DP  RH WIND       PRES   REMARKS
CHICAGO-OHARE  CLOUDY    78  70  76 S3        29.96S HX  80
CHICAGO-MIDWAY CLOUDY    80  72  76 S8        29.96S HX  84
AURORA         TSTM      76  74  93 CALM      29.98F FOG
LANSING*       CLOUDY    76  69  77 SE6       29.98S
JOLIET*        LGT RAIN  76  75  96 N3        29.97S
WAUKEGAN       LGT RAIN  73  72  96 CALM      29.96S
DUPAGE AIRPORT LGT RAIN  75  74  96 W3        29.97S FOG
WHEELING       CLOUDY    78  72  81 S5        29.98R HX  80
MORRIS*        LGT RAIN  73  72  94 SW5       29.96S
ROMEOVILLE*    RAIN      75  71  86 S3        29.98S
NORTHERLY ISL    N/A     75  70  84 CALM        N/A
$$

LMZ740>746-270500-
SOUTHERN LAKE MICHIGAN

STATION/POSITION SKY/WX   TEMP    WIND        PRES    VSBY  WAVE
                          AIR SEA DIR/SP/G                  HT/PER
                          (F)     (DEG/KT/KT) (MB)    (MI)  (FT/S)
SOUTHERN BUOY              73 70  130/  8/  8 1014.9          1
WILMETTE HARBOR            74 72  180/  6/  8   N/A           1/ 2
HARRISON CRIB              76     170/ 11/ 11   N/A
BURNHAM HARBOR             74                   N/A
CALUMET HARBOR             78     140/  6/  9 1014.8R
BURNS HARBOR               77     170/  8/ 13 1015.6S
MICHIGAN CITY              76     140/  7/  9   N/A
MICHIGAN CITY 6N           76 75  170/  6/  8   N/A           1
ST. JOSEPH                 75 75  160/  6/  8 1014.6F         0
$$

ILZ025>027-034>036-040-047-049-050-058-095>099-270500-
WEST-CENTRAL ILLINOIS

CITY           SKY/WX    TMP DP  RH WIND       PRES   REMARKS
QUINCY         CLOUDY    77  75  93 NE3       29.96S
GALESBURG*     CLOUDY    72  72 100 CALM      29.98S
MACOMB*        CLOUDY    74  73  97 CALM      29.99S
PITTSFIELD*    CLOUDY    78  76  94 CALM      29.97S HX  80
$$

ILZ028>032-037-038-041>044-048-051>054-059>061-270500-
CENTRAL ILLINOIS

CITY           SKY/WX    TMP DP  RH WIND       PRES   REMARKS
PONTIAC        HVY RAIN  72  72  98 SW8       29.99F
BLOOMINGTON    RAIN      71  70  96 W5        30.01F
DECATUR        TSTM      75  73  93 NW17G30   29.97F FOG
PEORIA         CLOUDY    73  73 100 SE5       29.97F
LACON*         CLOUDY    71  71  99 CALM      29.96F
LINCOLN*       RAIN      74  74 100 CALM      29.99F
SPRINGFIELD    CLOUDY    75  74  96 SE6       29.99R THUNDER
TAYLORVILLE    TSTM      73  72  98 NW18G35   29.99R VSB 1
$$

ILZ033-039-045-046-055>057-062-063-270500-
EAST-CENTRAL ILLINOIS

CITY           SKY/WX    TMP DP  RH WIND       PRES   REMARKS
CHAMPAIGN      LGT RAIN  79  77  94 CALM      29.99F FOG     HX  83
RANTOUL*       HVY RAIN  73  72  96 NW21G28   29.99S
MATTOON        LGT RAIN  78  76  93 S5        29.97F HX  81
PARIS*         CLOUDY    77  75  95 SW5       29.98F
$$

ILZ079-100>102-270500-
SOUTHWEST ILLINOIS

CITY           SKY/WX    TMP DP  RH WIND       PRES   REMARKS
ALTON          CLOUDY    77  73  88 SW13G18   29.98R THUNDER
BELLEVILLE     CLOUDY    77  74  90 CALM      29.97S
CAHOKIA*       PTCLDY    80  73  79 CALM      29.95F HX  84
SPARTA*        MOCLDY    76  74  93 S5        29.97F
$$

ILZ064>066-069>071-074>076-080>082-084>086-088>090-092>094-270500-
SOUTH-CENTRAL ILLINOIS

CITY           SKY/WX    TMP DP  RH WIND       PRES   REMARKS
CARBONDALE     CLOUDY    80  77  90 S7        29.97F HX  87
CAIRO*         MOCLDY    82  75  78 S6        29.99F HX  88
EFFINGHAM*     CLOUDY    78  74  87 CALM      29.98F HX  81
MARION         CLOUDY    82  79  89 SW5       29.98F HX  93
MT. VERNON     CLOUDY    78  75  90 CALM      29.97F HX  81
CENTRALIA*     CLOUDY    78  76  94 CALM      29.96F HX  81
SALEM*         CLOUDY    81  74  80 SE3       29.96F HX  86
METROPOLIS*    CLOUDY    82  75  78 S5        29.99F HX  89
$$

ILZ067-068-072-073-078-083-087-091-270500-
SOUTHEAST ILLINOIS

CITY           SKY/WX    TMP DP  RH WIND       PRES   REMARKS
LAWRENCEVILLE  CLOUDY    76  74  93 S6        29.98F
FLORA*         MOCLDY    78  76  95 SE3       29.97F FOG     HX  80
FAIRFIELD*     MOCLDY    76  76  98 CALM      29.96F
HARRISBURG*    CLOUDY    77  76  95 CALM      29.98F
ROBINSON*      MOCLDY    74  72  95 S5        29.97F
CARMI*         CLOUDY    75  75  99 CALM      29.98F FOG
$$

ABBREVIATIONS USED IN REMARKS
   TC - TEMPERATURE IN CELSIUS
  WCI - WIND CHILL INDEX
   HX - HEAT INDEX
  VSB - VISIBILITY
$$




USA.gov is the U.S. government's official web portal to all federal, state and local government web resources and services.